This is the latest recevied weather packets stored in our database for station/object AF5AA. If no packets are shown the sender has not sent any weather packets the latest 10 day(s).
| Time | Temp. | Humidity | Pressure | Rain* | Wind** | Luminosity | Snow |
|---|---|---|---|---|---|---|---|
| 1777985560 | 21.67° C | 89% | 1006.9 hPa | 0 mm | - | 7 W/m² | - |
| 1777985257 | 21.67° C | 89% | 1006.8 hPa | 0 mm | - | 4 W/m² | - |
| 1777984954 | 21.67° C | 89% | 1006.8 hPa | 0 mm | - | 5 W/m² | - |
| 1777984649 | 21.67° C | 89% | 1006.5 hPa | 0 mm | - | 7 W/m² | - |
| 1777984346 | 21.67° C | 89% | 1006.8 hPa | 0 mm | - | 5 W/m² | - |
| 1777984043 | 21.67° C | 89% | 1006.6 hPa | 0 mm | - | 5 W/m² | - |
| 1777983740 | 21.11° C | 89% | 1006.7 hPa | 0 mm | - | 3 W/m² | - |
| 1777983436 | 21.11° C | 89% | 1006.7 hPa | 0 mm | - | 2 W/m² | - |
| 1777983133 | 21.11° C | 89% | 1006.5 hPa | 0 mm | - | 2 W/m² | - |
| 1777982830 | 21.11° C | 89% | 1006.5 hPa | 0 mm | - | 1 W/m² | - |
| 1777982525 | 21.11° C | 89% | 1006.3 hPa | 0 mm | - | 1 W/m² | - |
| 1777982219 | 21.11° C | 89% | 1006.1 hPa | 0 mm | - | 1 W/m² | - |
| 1777981917 | 21.11° C | 89% | 1006.1 hPa | 0 mm | - | 1 W/m² | - |
| 1777981614 | 21.11° C | 89% | 1006 hPa | 0 mm | - | 1 W/m² | - |
| 1777981310 | 21.11° C | 89% | 1006.1 hPa | 0 mm | - | 0 W/m² | - |
| 1777981007 | 21.11° C | 89% | 1006.3 hPa | 0 mm | - | 0 W/m² | - |
| 1777980704 | 21.11° C | 89% | 1006.3 hPa | 0 mm | - | 0 W/m² | - |
| 1777980400 | 21.11° C | 89% | 1006.2 hPa | 0 mm | - | 0 W/m² | - |
| 1777980098 | 21.11° C | 89% | 1006.3 hPa | 0 mm | - | 0 W/m² | - |
| 1777979797 | 21.11° C | 89% | 1006.4 hPa | 0 mm | - | 0 W/m² | - |
| 1777979493 | 21.11° C | 89% | 1006.3 hPa | 0 mm | - | 0 W/m² | - |
| 1777979190 | 21.11° C | 89% | 1006.4 hPa | 0 mm | - | 0 W/m² | - |
| 1777978887 | 21.11° C | 89% | 1006.5 hPa | 0 mm | - | 0 W/m² | - |
| 1777978584 | 21.11° C | 89% | 1006.4 hPa | 0 mm | - | 0 W/m² | - |
| 1777978279 | 21.11° C | 89% | 1006.2 hPa | 0 mm | - | 0 W/m² | - |
* Rain latest hour (hover to see other rain measurements)
** Current wind speed in m/s (hover to see current wind gust speed)